Regional Weather Roundup
Issued by NWS

Home | Current Version | Previous Version | Graphics & Text | Print | Product List | Glossary Off
Versions: 1 2 3 4 5 6 7 8 9 10 11 12 13 14 15 16 17 18 19 20 21 22 23 24 25 26 27 28 29 30 31 32 33 34 35 36 37 38 39 40 41 42 43 44 45 46 47 48 49 50

000
ASUS43 KMKX 062021
RWRWI

WISCONSIN REGIONAL WEATHER ROUNDUP
NATIONAL WEATHER SERVICE MILWAUKEE/SULLIVAN WI
200 PM CST TUE DEC 06 2016

NOTE: "FAIR" INDICATES FEW OR NO CLOUDS BELOW 12,000 FEET WITH NO
SIGNIFICANT WEATHER AND/OR OBSTRUCTIONS TO VISIBILITY.

WIZ001-002-006>008-014>016-023>028-062100-
NORTHWEST WISCONSIN

CITY           SKY/WX    TMP DP  RH WIND       PRES   REMARKS
SUPERIOR ARPT  FLURRIES  24  14  66 SW16G25   29.56F WCI  10
ASHLAND        CLOUDY    26  19  74 MISG      29.58S
HAYWARD        CLOUDY    22  14  71 SW16G24   29.59F WCI   8
SIREN          FLURRIES  22  13  69 SW15G21   29.62S WCI   9
CUMBERLAND     CLOUDY    21  12  68 SW17      29.63R WCI   7
RICE LAKE      FLURRIES  22  15  75 SW14      29.66F WCI   9
CHETEK         CLOUDY    21  15  76 SW9G20    29.67S WCI  11
LADYSMITH      FLURRIES  22  16  79 SW13G21   29.66S WCI  10
EAU CLAIRE     FLURRIES  22  15  75 SW14G23   29.70S WCI   9
MENOMONIE      CLOUDY    23  15  72 SW18      29.71S WCI   9
NEW RICHMOND   CLOUDY    23  13  68 SW22G29   29.67R WCI   7
OSCEOLA        FLURRIES  24  15  69 SW24G32   29.69S WCI   8
$$

WIZ003>005-009-010-017-018-062100-
NORTH CENTRAL WISCONSIN

CITY           SKY/WX    TMP DP  RH WIND       PRES   REMARKS
MANITOWISH WTR PTSUNNY   27  20  75 SW13G21   29.55S WCI  16
ARBOR VITAE    CLOUDY    31  25  77 SW13      29.57S WCI  21
WOODRUFF       CLOUDY    31  25  77 SW13      29.57S WCI  21
RHINELANDER    PTSUNNY   30  23  75 SW14G23   29.58S WCI  19
EAGLE RIVER    CLOUDY    31  29  93 S8        29.55F WCI  23
LAND O LAKES   CLOUDY    32  29  90 S9        29.55F WCI  24
PHILLIPS       CLOUDY    23  18  82 SW12G18   29.59S WCI  12
TOMAHAWK       MOSUNNY   27  20  74 SW7       29.61R WCI  20
MEDFORD        CLOUDY    24  18  80 SW17G23   29.63S WCI  10
MERRILL        CLOUDY    29  23  78 W16       29.63R WCI  18
$$

WIZ029-030-035-036-043>047-062100-
CENTRAL WISCONSIN

CITY           SKY/WX    TMP DP  RH WIND       PRES   REMARKS
WAUSAU         PTSUNNY   29  21  72 SW9       29.63S WCI  20
MOSINEE        PTSUNNY   30  21  69 MISG      29.65S
MARSHFIELD     PTSUNNY   26  18  71 W21G29    29.66R WCI  12
STEVENS POINT  PTSUNNY   30  22  72 SW16      29.66S WCI  19
WAUPACA        CLOUDY    35  32  88 S8        29.67F WCI  29
WAUTOMA        PTSUNNY   34  25  69 SW16G22   29.69S WCI  23
WISC RAPIDS    MOSUNNY   30  23  75 W12G17    29.69S WCI  20
CAMP DOUGLAS   NOT AVBL
$$

WIZ011>013-019>022-031-037>040-048>050-062100-
NORTHEAST WISCONSIN

CITY           SKY/WX    TMP DP  RH WIND       PRES   REMARKS
ANTIGO         CLOUDY    30  27  90 SW16G22   29.61R WCI  18
SHAWANO        LGT SNOW  35  32  90 SW5       29.66F WCI  31
OCONTO         CLOUDY    35  31  83 SW8       29.66F WCI  29
STURGEON BAY   CLOUDY    38  32  79 S10       29.66F WCI  31
GREEN BAY      FLURRIES  37  33  85 SW8       29.68F WCI  31
MANITOWOC      CLOUDY    36  32  85 W10       29.70R WCI  28
APPLETON       LGT SNOW  34  32  93 SW9       29.66F WCI  26
CLINTONVILLE   LGT SNOW  32  32 100 SW8       29.66F WCI  25
OSHKOSH        CLOUDY    34  31  88 SW8       29.68F FOG     WCI  27
$$

WIZ032>034-041-042-053>061-062100-
SOUTHWEST WISCONSIN

CITY           SKY/WX    TMP DP  RH WIND       PRES   REMARKS
LA CROSSE      CLOUDY    26  17  68 SW13      29.80R WCI  15
SPARTA         CLOUDY    27  19  73 W13G23    29.76R WCI  16
VIROQUA        CLOUDY    24  17  74 W18G26    29.76R WCI  10
BOSCOBEL       SUNNY     30  18  60 W15G24    29.81R WCI  19
PRAIRIE DU CHI CLOUDY    28  19  67 W12G22    29.83R WCI  18
PLATTEVILLE    SUNNY     31  21  67 SW15      29.80R WCI  20
$$

WIZ056-057-062-063-064-067-068-062100-
SOUTH CENTRAL WISCONSIN

CITY           SKY/WX    TMP DP  RH WIND       PRES   REMARKS
REEDSBURG      SUNNY     32  22  65 SW16G22   29.73R WCI  22
BARABOO/DELLS  PTSUNNY   33  23  67 W12G21    29.72R WCI  24
LONE ROCK      SUNNY     33  21  61 W16G22    29.78R WCI  23
MINERAL POINT  SUNNY     32  23  69 W15G21    29.77R WCI  22
MADISON        PTSUNNY   34  24  67 W9G18     29.73S WCI  27
MIDDLETON      NOT AVBL
WATERTOWN      CLOUDY    33  33 100 SW8       29.72S WCI  26
MONROE         PTSUNNY   32  28  86 W16       29.76R WCI  21
JANESVILLE     PTSUNNY   36  32  87 W16       29.75S WCI  26
$$

WIZ051-052-058>065-066-070>072-062100-
SOUTHEAST WISCONSIN

CITY           SKY/WX    TMP DP  RH WIND       PRES   REMARKS
MILWAUKEE      CLOUDY    37  31  78 W13G23    29.74R WCI  29
WAUKESHA       CLOUDY    32  30  93 W5        29.73F FOG     WCI  27
MILWAUKEE/TIMM CLOUDY    36  30  80 W10G17    29.74R HAZE    WCI  28
RACINE         CLOUDY    36  31  82 W12       29.76R WCI  28
BURLINGTON     CLOUDY    34  32  94 W3        29.74F FOG
KENOSHA        CLOUDY    35  32  88 W12       29.75R FOG     WCI  27
FOND DU LAC    CLOUDY    34  30  85 SW9       29.70F WCI  27
SHEBOYGAN      CLOUDY    36  31  82 W14       29.71R WCI  27
WEST BEND      CLOUDY    32  32 100 SW6       29.70F FOG     WCI  26
JUNEAU         CLOUDY    32  31  95 SW10      29.72S FOG     WCI  24
$$

LSZ147-162-062100-
LAKE SUPERIOR

STATION/POSITION TIME  TEMP    WIND        PRES    WAVE
                       AIR SEA DIR/SP/G            HT/PER
                 (UTC) (F)     (DEG/KT/KT) (MB)    (FT/S)
PORT WING        1840   27     210/ 18/ 25 1001.7F
SAXON HARBOR     1830   32     210/ 11/ 19 1001.7S
$$

LMZ867-665-643>646-062100-
LAKE MICHIGAN

STATION/POSITION TIME  TEMP    WIND        PRES    WAVE
                       AIR SEA DIR/SP/G            HT/PER
                 (UTC) (F)     (DEG/KT/KT) (MB)    (FT/S)
CHAMBERS ISLAND  1840   38     150/  5/ 14 1004.4F
NORTHPORT PIER   1830   37     160/ 13/ 21 1005.4F
SISTER BAY       1923   38     210/ 17/ 21   N/A
ALGOMA LAKESHORE 1951          210/ 21/ 24   N/A
KEWAUNEE LAKESHO 1948   40     210/ 14/ 22 1004.4F
PORT WASHINGTON  1840   41     240/ 11/ 16 1007.1S
MILWAUKEE LAKESH 1950   36     270/ 15/ 19   N/A
$$

TC  - TEMPERATURE IN CELSIUS
VSB - VISIBILITY IN STATUTE MILES
WCI - WIND CHILL INDEX
HX  - HEAT INDEX





USA.gov is the U.S. government's official web portal to all federal, state and local government web resources and services.